Zurück zum Katalog

STARLINK-6340

AktivKommunikationVLEO
NORAD 57361·PAYLOAD·🇺🇸 United States

Gestartet Jul 16, 2023 von Cape Canaveral Space Force Station

Loading…

Nächste Überflüge (nächste 24 Stunden)

TLE

AktuellSource: CelesTrak SupGP

Epoche: Sep 14, 2026, 13:24 UTC

1 57361C 23099AK  26257.55881944  .00006601  00000+0  23915-3 0  2573
2 57361  43.0029 255.3824 0001397 292.5187 312.6550 15.27568792    10

Verfolge STARLINK-6340 in Echtzeit mit AllMySat

Download on the App Store